�N����,����,�~����,�C��,���x,�C��,����,���ϕ���,�ő�u�ԕ���,�ő厞����,���˗�,�I�_���x,�n�����x,�ő啗���N��,DTYPE
"17/03/20","00:10",0.0,5.3,86.9,1018.0,302.9,2.2,3.2,322.3,0.00,3.3,7.9,"00:01:12",1
"17/03/20","00:20",0.0,5.4,87.9,1017.8,318.4,2.2,4.0,332.0,0.00,3.6,7.8,"00:19:52",1
"17/03/20","00:30",0.0,5.7,87.9,1017.8,317.9,2.3,3.7,329.7,0.00,3.9,7.7,"00:24:08",1
"17/03/20","00:40",0.0,5.7,87.7,1018.0,319.6,2.5,3.6,338.6,0.00,3.9,7.9,"00:35:28",1
"17/03/20","00:50",0.0,5.7,87.6,1018.0,321.1,2.8,3.5,322.2,0.00,3.8,7.9,"00:43:28",1
"17/03/20","01:00",0.0,5.4,87.4,1018.2,306.1,2.1,3.3,324.7,0.00,3.5,7.8,"00:50:32",1
"17/03/20","01:10",0.0,5.5,88.9,1018.2,318.9,3.0,3.9,324.0,0.00,3.9,7.8,"01:07:12",1
"17/03/20","01:20",0.0,6.0,88.9,1018.2,321.8,3.4,4.4,333.9,0.00,4.4,8.0,"01:12:48",1
"17/03/20","01:30",0.0,5.9,88.3,1018.7,321.5,3.1,3.9,329.0,0.00,4.2,7.6,"01:20:40",1
"17/03/20","01:40",0.0,5.7,88.1,1018.5,317.6,3.2,4.8,322.2,0.00,3.9,7.6,"01:34:56",1
"17/03/20","01:50",0.0,5.6,88.4,1018.5,313.4,3.0,4.1,326.9,0.00,3.9,7.8,"01:44:16",1
"17/03/20","02:00",0.0,5.4,88.2,1018.5,307.1,2.3,3.7,309.6,0.00,3.6,7.7,"01:52:08",1
"17/03/20","02:10",0.0,5.0,88.8,1018.7,304.0,2.0,3.3,319.0,0.00,3.3,7.3,"02:04:16",1
"17/03/20","02:20",0.0,4.7,89.8,1018.7,302.0,1.7,2.4,307.9,0.00,3.2,7.4,"02:19:20",1
"17/03/20","02:30",0.0,4.6,90.5,1018.7,308.8,2.3,4.1,322.4,0.00,3.2,7.4,"02:25:04",1
"17/03/20","02:40",0.0,4.5,90.9,1018.5,313.6,2.7,3.9,312.9,0.00,3.2,7.3,"02:38:32",1
"17/03/20","02:50",0.0,4.5,91.5,1018.5,312.4,2.6,3.6,331.9,0.00,3.3,7.4,"02:45:28",1
"17/03/20","03:00",0.0,4.4,91.6,1018.5,297.3,1.8,2.7,301.2,0.00,3.2,7.4,"02:58:32",1
"17/03/20","03:10",0.0,4.2,91.9,1018.2,302.6,1.3,2.1,328.5,0.00,3.0,7.3,"03:03:20",1
"17/03/20","03:20",0.0,4.0,92.4,1018.2,301.4,2.0,3.3,318.7,0.00,2.9,7.3,"03:16:32",1
"17/03/20","03:30",0.0,3.9,92.4,1018.5,305.2,1.8,2.7,303.9,0.00,2.8,7.1,"03:21:44",1
"17/03/20","03:40",0.0,3.8,92.9,1018.2,331.1,0.8,1.8,321.2,0.00,2.8,7.2,"03:39:52",1
"17/03/20","03:50",0.0,3.5,92.6,1018.5,317.5,1.7,2.6,322.9,0.00,2.5,7.2,"03:49:52",1
"17/03/20","04:00",0.0,3.5,93.6,1018.5,315.3,2.3,2.9,317.5,0.00,2.6,7.0,"03:50:56",1
"17/03/20","04:10",0.0,4.1,94.3,1018.5,326.9,3.4,4.9,324.5,0.00,3.3,7.2,"04:08:40",1
"17/03/20","04:20",0.0,4.4,93.0,1018.5,291.8,2.1,5.4,322.6,0.00,3.4,7.0,"04:12:24",1
"17/03/20","04:30",0.0,4.3,92.7,1018.7,293.2,2.0,5.2,330.5,0.00,3.3,6.7,"04:27:12",1
"17/03/20","04:40",0.0,4.6,91.4,1018.5,311.4,3.9,5.4,304.8,0.00,3.4,6.9,"04:36:40",1
"17/03/20","04:50",0.0,4.7,90.1,1019.0,327.5,3.6,5.6,335.6,0.00,3.3,7.2,"04:40:32",1
"17/03/20","05:00",0.0,4.6,89.8,1019.2,326.5,3.7,5.4,336.2,0.00,3.1,6.8,"04:53:12",1
"17/03/20","05:10",0.0,4.5,89.2,1019.0,322.0,3.9,5.1,330.7,0.00,2.9,6.9,"05:05:20",1
"17/03/20","05:20",0.0,4.3,88.7,1019.2,319.8,2.1,4.1,337.4,0.00,2.6,7.0,"05:11:20",1
"17/03/20","05:30",0.0,4.2,89.5,1019.0,321.6,3.1,4.8,334.9,0.00,2.7,7.0,"05:26:40",1
"17/03/20","05:40",0.0,4.3,89.0,1019.2,330.3,2.8,4.7,337.4,0.00,2.7,6.8,"05:33:44",1
"17/03/20","05:50",0.0,4.0,88.6,1019.2,337.4,1.3,3.2,326.0,0.00,2.3,6.9,"05:40:48",1
"17/03/20","06:00",0.0,3.3,88.5,1019.2,250.5,0.7,1.2,287.6,0.00,1.6,6.7,"05:51:44",1
"17/03/20","06:10",0.0,2.9,89.8,1019.0,306.1,1.7,2.8,337.9,0.00,1.4,6.6,"06:08:16",1
"17/03/20","06:20",0.0,2.4,91.1,1018.7,324.4,2.5,3.2,320.8,0.00,1.1,6.8,"06:12:00",1
"17/03/20","06:30",0.0,2.1,92.5,1018.7,286.4,1.3,1.8,316.0,0.00,1.1,6.6,"06:20:40",1
"17/03/20","06:40",0.0,2.0,93.6,1018.7,307.7,2.1,2.5,317.8,0.00,1.1,6.5,"06:38:40",1
"17/03/20","06:50",0.0,2.3,94.6,1018.7,301.9,2.1,2.7,305.7,0.00,1.6,6.5,"06:49:20",1
"17/03/20","07:00",0.0,2.8,95.0,1018.7,307.9,2.1,2.9,312.0,0.01,2.1,6.7,"06:50:08",1
"17/03/20","07:10",0.0,3.6,95.0,1018.5,297.1,2.1,3.7,305.4,0.02,2.9,6.5,"07:00:16",1
"17/03/20","07:20",0.0,5.3,89.5,1018.7,310.2,3.7,6.5,336.2,0.03,3.8,6.6,"07:17:12",1
"17/03/20","07:30",0.0,6.0,84.6,1019.2,333.6,3.9,6.2,336.7,0.05,3.6,6.5,"07:22:32",1
"17/03/20","07:40",0.0,6.4,83.6,1019.7,328.6,3.0,4.9,328.7,0.07,3.9,6.6,"07:35:28",1
"17/03/20","07:50",0.0,6.7,83.2,1019.9,338.5,2.0,4.1,338.8,0.09,4.1,6.8,"07:40:16",1
"17/03/20","08:00",0.0,7.5,80.6,1019.9,330.3,1.7,2.8,328.0,0.11,4.4,6.9,"07:50:48",1
"17/03/20","08:10",0.0,7.7,81.7,1020.1,341.5,1.3,2.8,349.9,0.14,4.8,6.9,"08:00:16",1
"17/03/20","08:20",0.0,9.0,76.7,1020.1,318.1,1.7,3.1,331.8,0.16,5.2,6.8,"08:14:48",1
"17/03/20","08:30",0.0,9.7,71.7,1019.9,315.0,2.3,3.6,313.6,0.19,4.9,7.1,"08:25:36",1
"17/03/20","08:40",0.0,10.5,69.8,1019.9,286.5,1.6,2.7,318.0,0.22,5.3,7.3,"08:33:28",1
"17/03/20","08:50",0.0,10.1,69.8,1020.1,207.7,1.5,3.3,168.3,0.25,4.9,7.4,"08:48:00",1
"17/03/20","09:00",0.0,10.2,69.8,1019.9,155.4,1.3,2.6,167.9,0.27,5.0,7.6,"08:50:56",1
"17/03/20","09:10",0.0,10.6,66.5,1019.7,163.6,0.7,1.7,118.8,0.30,4.7,8.0,"09:09:20",1
"17/03/20","09:20",0.0,11.6,63.9,1019.4,149.9,0.6,2.1,99.0,0.33,5.0,8.0,"09:19:04",1
"17/03/20","09:30",0.0,11.9,61.2,1020.1,182.2,1.3,2.6,135.7,0.35,4.7,8.1,"09:22:32",1
"17/03/20","09:40",0.0,12.1,58.9,1019.7,163.5,1.8,2.8,117.9,0.37,4.4,8.5,"09:33:04",1
"17/03/20","09:50",0.0,12.7,53.2,1019.9,193.4,1.3,2.8,191.6,0.40,3.5,8.7,"09:48:00",1
"17/03/20","10:00",0.0,13.6,47.9,1019.4,220.6,0.8,1.9,207.7,0.42,2.8,9.0,"09:51:36",1
"17/03/20","10:10",0.0,14.2,44.3,1019.7,198.2,1.3,2.5,184.6,0.44,2.3,9.2,"10:01:36",1
"17/03/20","10:20",0.0,14.1,39.8,1019.4,135.2,1.3,2.7,115.6,0.46,0.7,9.5,"10:10:56",1
"17/03/20","10:30",0.0,14.2,40.0,1019.0,168.3,1.3,3.2,118.9,0.48,0.8,9.9,"10:26:40",1
"17/03/20","10:40",0.0,14.7,39.8,1018.7,172.1,1.2,3.6,122.2,0.49,1.2,10.0,"10:35:04",1
"17/03/20","10:50",0.0,15.0,37.3,1018.2,183.3,1.3,4.0,126.0,0.51,0.6,10.0,"10:40:40",1
"17/03/20","11:00",0.0,15.1,36.9,1017.8,258.0,1.0,3.2,171.8,0.51,0.5,10.7,"10:58:32",1
"17/03/20","11:10",0.0,15.5,35.7,1017.5,204.1,1.6,3.5,188.5,0.54,0.4,10.6,"11:00:32",1
"17/03/20","11:20",0.0,15.5,34.0,1017.3,167.3,1.3,3.1,173.5,0.54,-0.2,10.9,"11:16:24",1
"17/03/20","11:30",0.0,15.7,35.2,1017.1,138.7,1.7,3.4,131.4,0.56,0.4,11.0,"11:24:24",1
"17/03/20","11:40",0.0,16.0,33.8,1016.8,120.8,1.1,3.6,114.5,0.57,0.1,11.4,"11:30:24",1
"17/03/20","11:50",0.0,15.8,32.5,1016.6,128.2,1.6,3.1,123.3,0.58,-0.6,11.8,"11:44:56",1
"17/03/20","12:00",0.0,16.3,31.2,1016.4,302.2,1.5,3.2,335.6,0.58,-0.7,11.8,"11:58:24",1
"17/03/20","12:10",0.0,16.7,30.3,1016.1,265.0,1.3,2.8,230.5,0.56,-0.8,12.2,"12:09:12",1
"17/03/20","12:20",0.0,16.6,29.7,1015.9,134.3,2.1,3.6,104.8,0.55,-1.1,12.3,"12:13:20",1
"17/03/20","12:30",0.0,17.2,29.3,1015.4,171.1,2.1,4.7,205.2,0.57,-0.8,12.6,"12:28:24",1
"17/03/20","12:40",0.0,17.3,29.0,1015.2,149.0,1.7,4.4,128.4,0.53,-0.9,12.5,"12:31:20",1
"17/03/20","12:50",0.0,17.2,29.2,1014.7,158.0,2.1,4.2,123.1,0.48,-0.8,13.1,"12:49:52",1
"17/03/20","13:00",0.0,17.1,29.0,1014.7,101.6,1.7,3.7,127.4,0.47,-1.0,13.0,"12:50:16",1
"17/03/20","13:10",0.0,17.3,30.1,1014.2,108.5,2.5,5.1,116.0,0.44,-0.3,13.2,"13:09:04",1
"17/03/20","13:20",0.0,17.1,29.9,1014.2,175.0,2.1,4.2,195.7,0.40,-0.6,13.4,"13:12:56",1
"17/03/20","13:30",0.0,17.4,31.7,1013.8,130.1,2.2,4.5,106.8,0.42,0.5,13.4,"13:21:20",1
"17/03/20","13:40",0.0,17.6,28.8,1013.8,214.4,1.3,3.1,136.8,0.42,-0.7,13.3,"13:30:16",1
"17/03/20","13:50",0.0,17.6,26.1,1013.8,191.4,2.0,4.0,144.1,0.40,-2.0,13.4,"13:43:12",1
"17/03/20","14:00",0.0,17.7,26.7,1013.0,214.6,1.5,3.9,236.0,0.39,-1.6,13.5,"13:58:08",1
"17/03/20","14:10",0.0,18.2,28.2,1013.0,179.2,2.0,3.7,226.5,0.38,-0.5,13.5,"14:00:16",1
"17/03/20","14:20",0.0,17.8,26.0,1012.8,134.3,1.8,4.3,116.0,0.38,-1.9,13.6,"14:17:52",1
"17/03/20","14:30",0.0,17.7,26.2,1012.3,67.0,1.3,2.5,112.3,0.36,-1.9,13.7,"14:22:56",1
"17/03/20","14:40",0.0,17.8,26.1,1012.6,291.4,1.8,3.1,253.8,0.32,-1.9,13.6,"14:35:44",1
"17/03/20","14:50",0.0,18.3,27.2,1012.3,275.3,1.1,2.1,331.8,0.32,-0.9,13.6,"14:40:08",1
"17/03/20","15:00",0.0,18.1,23.8,1012.1,201.2,1.5,3.3,192.4,0.30,-2.8,13.9,"14:53:36",1
"17/03/20","15:10",0.0,18.3,25.3,1011.9,245.2,1.1,2.5,179.9,0.26,-1.9,13.8,"15:09:44",1
"17/03/20","15:20",0.0,18.0,26.4,1011.6,206.9,1.5,3.6,229.3,0.20,-1.5,13.8,"15:19:44",1
"17/03/20","15:30",0.0,17.9,25.6,1011.6,126.7,2.7,6.8,132.8,0.21,-2.0,13.6,"15:21:44",1
"17/03/20","15:40",0.0,17.7,26.0,1011.6,133.3,2.0,3.5,135.0,0.17,-2.0,13.7,"15:31:20",1
"17/03/20","15:50",0.0,17.4,20.0,1011.9,140.5,2.3,4.4,126.3,0.14,-5.7,13.6,"15:47:04",1
"17/03/20","16:00",0.0,17.4,22.1,1011.6,157.1,1.6,2.9,180.4,0.11,-4.4,13.6,"15:53:20",1
"17/03/20","16:10",0.0,17.3,20.0,1011.6,104.3,1.7,3.2,111.9,0.10,-5.8,13.4,"16:07:52",1
"17/03/20","16:20",0.0,17.3,20.7,1011.6,96.6,1.1,2.2,110.0,0.09,-5.4,13.4,"16:17:52",1
"17/03/20","16:30",0.0,17.1,22.9,1011.9,119.5,1.6,3.9,122.4,0.08,-4.2,13.3,"16:24:16",1
"17/03/20","16:40",0.0,16.9,25.0,1012.3,130.0,1.3,2.7,125.9,0.05,-3.2,13.2,"16:32:32",1
"17/03/20","16:50",0.0,16.7,23.9,1011.9,105.7,1.1,1.9,114.5,0.03,-4.0,13.0,"16:40:40",1
"17/03/20","17:00",0.0,16.5,26.4,1011.6,114.7,1.2,2.2,116.2,0.03,-2.8,13.2,"16:57:52",1
"17/03/20","17:10",0.0,16.3,27.2,1011.6,108.2,1.2,2.8,115.7,0.02,-2.6,12.9,"17:07:52",1
"17/03/20","17:20",0.0,16.0,26.4,1011.6,105.9,1.3,3.1,112.5,0.01,-3.2,12.9,"17:14:00",1
"17/03/20","17:30",0.0,15.9,26.2,1011.6,86.3,1.0,2.2,109.4,0.00,-3.4,12.6,"17:21:28",1
"17/03/20","17:40",0.0,15.7,27.0,1011.6,57.3,0.8,1.9,110.6,0.00,-3.2,12.6,"17:32:56",1
"17/03/20","17:50",0.0,15.3,29.5,1011.6,328.8,0.8,1.4,337.7,0.00,-2.3,12.4,"17:43:12",1
"17/03/20","18:00",0.0,14.9,32.3,1011.6,326.6,1.1,1.9,336.9,0.00,-1.5,12.5,"17:55:20",1
"17/03/20","18:10",0.0,14.4,38.5,1011.9,298.7,1.1,1.8,312.3,0.00,0.5,12.3,"18:04:16",1
"17/03/20","18:20",0.0,13.9,41.0,1011.6,312.2,1.3,2.0,315.3,0.00,0.9,12.1,"18:19:44",1
"17/03/20","18:30",0.0,13.5,44.4,1011.9,324.3,1.3,2.0,322.7,0.00,1.7,12.0,"18:21:28",1
"17/03/20","18:40",0.0,13.0,46.0,1011.6,299.8,1.0,1.2,313.6,0.00,1.7,12.1,"18:30:08",1
"17/03/20","18:50",0.0,12.6,46.6,1011.9,312.9,1.3,2.4,319.4,0.00,1.5,12.0,"18:49:20",1
"17/03/20","19:00",0.0,12.5,47.5,1011.9,314.8,1.3,1.9,316.3,0.00,1.7,11.7,"18:56:08",1
"17/03/20","19:10",0.0,12.2,48.9,1011.9,297.0,1.2,1.6,304.3,0.00,1.8,11.7,"19:08:16",1
"17/03/20","19:20",0.0,12.0,50.5,1011.6,301.2,1.3,1.8,302.3,0.00,2.1,11.6,"19:16:16",1
"17/03/20","19:30",0.0,11.9,53.4,1011.6,323.5,1.3,2.0,314.0,0.00,2.8,11.6,"19:27:28",1
"17/03/20","19:40",0.0,11.5,54.5,1011.6,307.3,1.5,2.0,329.9,0.00,2.7,11.6,"19:31:36",1
"17/03/20","19:50",0.0,11.3,53.9,1011.6,280.9,1.2,1.8,288.7,0.00,2.4,11.3,"19:47:04",1
"17/03/20","20:00",0.0,11.4,52.9,1011.9,292.1,1.5,2.0,286.8,0.00,2.2,11.4,"19:54:16",1
"17/03/20","20:10",0.0,11.4,54.2,1011.9,322.1,1.7,2.4,320.4,0.00,2.5,11.2,"20:03:44",1
"17/03/20","20:20",0.0,11.2,56.0,1011.9,309.9,1.5,1.9,323.1,0.00,2.8,11.2,"20:18:56",1
"17/03/20","20:30",0.0,11.1,54.7,1012.1,291.5,1.5,2.5,324.9,0.00,2.4,11.1,"20:21:20",1
"17/03/20","20:40",0.0,11.1,54.1,1012.1,293.0,1.5,2.0,303.3,0.00,2.2,11.0,"20:34:56",1
"17/03/20","20:50",0.0,11.0,56.5,1012.1,330.4,1.7,2.4,319.9,0.00,2.7,11.2,"20:40:02",1
"17/03/20","21:00",0.0,10.7,57.5,1011.9,300.8,1.5,2.1,322.8,0.00,2.7,10.8,"20:50:08",1
"17/03/20","21:10",0.0,10.6,57.3,1012.1,291.4,1.5,2.2,307.1,0.00,2.6,10.9,"21:09:28",1
"17/03/20","21:20",0.0,10.6,57.7,1012.1,310.7,1.7,2.2,317.2,0.00,2.7,11.0,"21:16:32",1
"17/03/20","21:30",0.0,10.6,57.1,1012.1,293.2,1.7,2.1,315.3,0.00,2.5,10.7,"21:21:52",1
"17/03/20","21:40",0.0,10.7,55.5,1011.9,300.4,2.0,2.7,333.9,0.00,2.2,10.9,"21:37:38",1
"17/03/20","21:50",0.0,10.7,55.9,1011.9,295.2,1.6,2.8,322.8,0.00,2.3,10.7,"21:46:38",1
"17/03/20","22:00",0.0,10.7,57.9,1012.1,319.7,1.8,2.7,330.9,0.00,2.8,10.7,"21:51:42",1
"17/03/20","22:10",0.0,10.6,56.6,1011.9,277.1,1.3,1.9,273.1,0.00,2.4,10.6,"22:05:28",1
"17/03/20","22:20",0.0,10.7,58.4,1011.6,303.8,1.2,2.7,320.4,0.00,2.9,10.6,"22:19:38",1
"17/03/20","22:30",0.0,10.5,60.5,1011.4,309.3,1.7,2.8,328.3,0.00,3.2,10.5,"22:21:34",1
"17/03/20","22:40",0.0,10.3,61.7,1011.2,293.1,1.6,2.2,323.1,0.00,3.3,10.6,"22:32:22",1
"17/03/20","22:50",0.0,10.3,64.0,1010.9,318.0,2.2,3.1,321.8,0.00,3.8,10.6,"22:43:22",1
"17/03/20","23:00",0.0,10.1,67.9,1010.7,326.3,2.6,3.4,331.0,0.00,4.5,10.5,"22:59:54",1
"17/03/20","23:10",0.0,9.9,70.8,1010.4,285.5,2.3,3.7,310.5,0.00,4.9,10.6,"23:00:18",1
"17/03/20","23:20",0.0,9.8,72.9,1010.4,316.4,2.7,3.6,325.3,0.00,5.2,10.4,"23:11:14",1
"17/03/20","23:30",0.0,10.0,75.0,1010.2,283.7,2.7,4.3,333.9,0.00,5.8,10.3,"23:29:52",1
"17/03/20","23:40",0.0,9.9,76.4,1010.7,299.1,2.8,5.4,320.2,0.00,6.0,10.3,"23:30:24",1
"17/03/20","23:50",0.2,9.8,78.5,1010.2,301.4,1.6,3.9,351.7,0.00,6.3,10.2,"23:49:36",1
"17/03/20","24:00",0.0,9.4,82.3,1010.2,318.3,2.7,3.9,320.6,0.00,6.6,10.1,"23:54:48",1
